This is the latest recevied weather packets stored in our database for station/object SQ5JP-4. If no packets are shown the sender has not sent any weather packets the latest 10 day(s).
| Time | Temp. | Humidity | Pressure | Rain* | Wind** | Luminosity | Snow |
|---|---|---|---|---|---|---|---|
| 1777580985 | 6.67° C | 100% | 1009 hPa | - | - | - | - |
| 1777579188 | 7.22° C | 88% | 1009.1 hPa | - | - | - | - |
| 1777578288 | 7.78° C | 83% | 1009.3 hPa | - | - | - | - |
| 1777577388 | 7.78° C | 69% | 1009.2 hPa | - | - | - | - |
| 1777576487 | 7.78° C | 69% | 1009.3 hPa | - | - | - | - |
| 1777575587 | 8.33° C | 61% | 1009.3 hPa | - | - | - | - |
| 1777574687 | 8.33° C | 60% | 1009.2 hPa | - | - | - | - |
| 1777573787 | 8.89° C | 56% | 1009.2 hPa | - | - | - | - |
| 1777572887 | 8.89° C | 54% | 1009.4 hPa | - | - | - | - |
| 1777571987 | 9.44° C | 53% | 1009.3 hPa | - | - | - | - |
| 1777571087 | 9.44° C | 52% | 1009.2 hPa | - | - | - | - |
| 1777570187 | 10° C | 50% | 1009.2 hPa | - | - | - | - |
| 1777569287 | 11.67° C | 47% | 1009.1 hPa | - | - | - | - |
| 1777568386 | 11.11° C | 48% | 1009.1 hPa | - | - | - | - |
| 1777567486 | 10.56° C | 48% | 1009 hPa | - | - | - | - |
| 1777566586 | 10.56° C | 48% | 1009 hPa | - | - | - | - |
| 1777565686 | 11.11° C | 46% | 1009 hPa | - | - | - | - |
| 1777564785 | 11.67° C | 45% | 1009 hPa | - | - | - | - |
| 1777563885 | 12.22° C | 43% | 1009.1 hPa | - | - | - | - |
| 1777562985 | 12.22° C | 42% | 1009 hPa | - | - | - | - |
| 1777562085 | 12.22° C | 40% | 1009 hPa | - | - | - | - |
| 1777561185 | 12.78° C | 39% | 1009.1 hPa | - | - | - | - |
| 1777560284 | 14.44° C | 36% | 1009.2 hPa | - | - | - | - |
| 1777559384 | 16.11° C | 35% | 1009.3 hPa | - | - | - | - |
| 1777557587 | 15° C | 35% | 1009.4 hPa | - | - | - | - |
* Rain since midnight (hover to see other rain measurements)
** Current wind speed in m/s (hover to see current wind gust speed)